(215039) = 2009 CM53 = 2007 UL27

Discovered at La Sagra on 2009-02-13 by OAM.

Orbit

Orbit type: Main Belt

Note: WebGL enabled browser required.

epoch2023-02-25.0
epoch JD2460000.5
perihelion date2021-02-23.14311
perihelion JD2459268.64311
argument of perihelion (°)261.24220
ascending node (°)137.84318
inclination (°)6.83830
eccentricity0.1053132
perihelion distance (AU)2.3818364
Tisserand w.r.t. Jupiter3.4
ΔV w.r.t. Earth (km/sec)9.9
semimajor axis (AU)2.6622014
mean anomaly (°)166.06138
mean daily motion (°/day)0.22690420
aphelion distance (AU)2.943
period (years)4.34
P-vector [x]0.77148842
P-vector [y]0.62048024
P-vector [z]0.14074761
Q-vector [x]-0.63120473
Q-vector [y]0.71863089
Q-vector [z]0.29180511
absolute magnitude16.5
phase slope0.15
uncertainty0
referenceMPO 745323
observations used467
oppositions15
arc length (days)10060
first opposition used1995
last opposition used2023
residual rms (arc-secs)0.71
perturbers coarse indicatorM-v
perturbers precise indicator003Ek
first observation date used1995-11-30.0
last observation date used2023-06-16.0
computer nameMPCLINUX
JD of orbit computation2456789.312709
perihelion JD uncertainty (days)1.4198E-04
argument of perihelion uncertainty (°)5.0499E-05
ascending node uncertainty (°)4.0448E-05
inclination uncertainty (°)5.7954E-06
eccentricity uncertainty 4.7563E-08
perihelion distance uncertainty (AU)1.3424E-07
Minimum Orbit Intersection Distances (in AU)
for orbit epoch: 2460000.5, reference: E2023-M35
Mercury2.0559
Venus1.66153
Earth1.39923
Mars0.91993
Jupiter2.44198
Saturn6.52994
Uranus15.5991
Neptune27.458

Observations

481 total observations over interval: 1995 11 30.47114 – 2023 06 16.342593
These data are available for download (format description).

Date (UT) J2000 RA J2000 Dec Magn Location Ref
1995 11 30.47114 09 29 05.55 +11 59 38.3   691 – Steward Observatory, Kitt Peak-Spacewatch MPS 281373
1995 11 30.49973 09 29 06.30 +11 59 36.8 20.9 V 691 – Steward Observatory, Kitt Peak-Spacewatch MPS 281373
1995 11 30.52831 09 29 07.07 +11 59 33.9   691 – Steward Observatory, Kitt Peak-Spacewatch MPS 281373
1995 12 26.43274 09 32 43.07 +12 17 14.5 20.6 V 691 – Steward Observatory, Kitt Peak-Spacewatch MPS 281373
1995 12 26.45414 09 32 42.77 +12 17 18.0   691 – Steward Observatory, Kitt Peak-Spacewatch MPS 281373
1995 12 26.47871 09 32 42.42 +12 17 22.0   691 – Steward Observatory, Kitt Peak-Spacewatch MPS 281373
2003 10 19.38523 03 33 36.91 +07 46 05.8 19.6 R 699 – Lowell Observatory-LONEOS MPS 281373
2003 10 19.39844 03 33 36.35 +07 46 01.8   699 – Lowell Observatory-LONEOS MPS 281373
2003 10 19.41175 03 33 35.88 +07 45 57.5   699 – Lowell Observatory-LONEOS MPS 281373
2003 10 19.42496 03 33 35.36 +07 45 53.9   699 – Lowell Observatory-LONEOS MPS 281373
2003 11 29.36098 03 00 33.50 +05 24 47.6 20.2 V 691 – Steward Observatory, Kitt Peak-Spacewatch MPS 281373
2003 11 29.38827 03 00 32.28 +05 24 47.0 19.8 V 691 – Steward Observatory, Kitt Peak-Spacewatch MPS 281373
2003 11 29.41897 03 00 30.91 +05 24 45.8 20.2 V 691 – Steward Observatory, Kitt Peak-Spacewatch MPS 281373
2005 03 03.29703 11 14 50.89 +09 58 10.1 18.8 R 703 – Catalina Sky Survey MPS 281373
2005 03 03.30504 11 14 50.50 +09 58 13.6 19.3 R 703 – Catalina Sky Survey MPS 281373
2005 03 03.31307 11 14 50.14 +09 58 18.1 19.4 R 703 – Catalina Sky Survey MPS 281373
2005 03 03.32122 11 14 49.67 +09 58 20.5 18.9 R 703 – Catalina Sky Survey MPS 281373
2007 09 12.25865 00 14 37.42 -06 08 46.8 19.6 V 703 – Catalina Sky Survey MPS 281373
2007 09 12.26510 00 14 37.14 -06 08 49.6 19.5 V 703 – Catalina Sky Survey MPS 281373
2007 09 12.27154 00 14 36.74 -06 08 52.5 19.7 V 703 – Catalina Sky Survey MPS 281373
2007 09 12.27799 00 14 36.56 -06 08 54.8 19.5 V 703 – Catalina Sky Survey MPS 281373
2007 09 18.23635 00 10 16.51 -06 57 06.6   704 – Lincoln Laboratory ETS, New Mexico MPS 406953
2007 09 18.24808 00 10 15.93 -06 57 12.3   704 – Lincoln Laboratory ETS, New Mexico MPS 406953
2007 09 18.25982 00 10 15.32 -06 57 17.8   704 – Lincoln Laboratory ETS, New Mexico MPS 406953
2007 09 18.27156 00 10 14.82 -06 57 24.0   704 – Lincoln Laboratory ETS, New Mexico MPS 406953
2007 09 18.28328 00 10 14.19 -06 57 28.6   704 – Lincoln Laboratory ETS, New Mexico MPS 406953
2007 10 13.21612 23 51 55.36 -09 41 26.2   704 – Lincoln Laboratory ETS, New Mexico MPS 406953
2007 10 13.22727 23 51 54.90 -09 41 30.8   704 – Lincoln Laboratory ETS, New Mexico MPS 406953
2007 10 16.27759 23 50 09.56 -09 53 55.5 19.3 V G96 – Mt. Lemmon Survey MPS 223916
2007 10 16.28704 23 50 09.24 -09 53 57.5 19.9 V G96 – Mt. Lemmon Survey MPS 223916
2007 10 16.29645 23 50 08.91 -09 53 59.5 19.8 V G96 – Mt. Lemmon Survey MPS 223916
2007 10 16.30600 23 50 08.59 -09 54 01.8 19.2 V G96 – Mt. Lemmon Survey MPS 223916
2007 10 20.24124 23 48 10.29 -10 06 56.0 20.0 V G96 – Mt. Lemmon Survey MPS 223916
2007 10 20.24838 23 48 10.11 -10 06 57.2 20.2 V G96 – Mt. Lemmon Survey MPS 223916
2007 10 20.25563 23 48 09.86 -10 06 58.2 19.9 V G96 – Mt. Lemmon Survey MPS 223916
2007 10 20.26289 23 48 09.68 -10 06 59.4 20.0 V G96 – Mt. Lemmon Survey MPS 223916
2009 01 15.36389 09 07 08.73 +14 30 20.3 20.2 V 691 – Steward Observatory, Kitt Peak-Spacewatch MPS 281373
2009 01 15.38200 09 07 07.85 +14 30 27.2 20.1 V 691 – Steward Observatory, Kitt Peak-Spacewatch MPS 281373
2009 01 15.40037 09 07 06.96 +14 30 33.4 20.2 V 691 – Steward Observatory, Kitt Peak-Spacewatch MPS 281373
2009 01 22.28778 09 01 23.77 +15 12 15.8   704 – Lincoln Laboratory ETS, New Mexico MPS 406953
2009 01 22.31293 09 01 22.40 +15 12 25.1   704 – Lincoln Laboratory ETS, New Mexico MPS 406953
2009 01 22.32535 09 01 21.73 +15 12 30.2   704 – Lincoln Laboratory ETS, New Mexico MPS 406953
2009 01 25.18234 08 58 49.92 +15 30 36.6 20.1 V 691 – Steward Observatory, Kitt Peak-Spacewatch MPS 281373
2009 01 25.19999 08 58 48.97 +15 30 43.2 19.8 V 691 – Steward Observatory, Kitt Peak-Spacewatch MPS 281373
2009 01 25.21764 08 58 47.96 +15 30 50.2 19.8 V 691 – Steward Observatory, Kitt Peak-Spacewatch MPS 281373
2009 02 03.16954 08 50 38.16 +16 28 27.3 19.8 V 691 – Steward Observatory, Kitt Peak-Spacewatch MPS 281373
2009 02 03.18767 08 50 37.13 +16 28 34.5 19.9 V 691 – Steward Observatory, Kitt Peak-Spacewatch MPS 281373
2009 02 03.20580 08 50 36.07 +16 28 42.8 19.4 V 691 – Steward Observatory, Kitt Peak-Spacewatch MPS 281373
2009 02 13.15676 08 41 56.51 +17 29 54.5 20.2 V 691 – Steward Observatory, Kitt Peak-Spacewatch MPS 277735
2009 02 13.17073 08 41 55.82 +17 29 59.5 20.1 V 691 – Steward Observatory, Kitt Peak-Spacewatch MPS 277735
2009 02 13.18446 08 41 55.13 +17 30 04.4 20.1 V 691 – Steward Observatory, Kitt Peak-Spacewatch MPS 277735
2009 02 13.92062 08 41 19.48 +17 34 20.4 20.2 V J75 – OAM Observatory, La Sagra MPS 277735
2009 02 13.93417 08 41 18.81 +17 34 24.9 19.7 V J75 – OAM Observatory, La Sagra MPS 277735
2009 02 13.94755 08 41 18.09 +17 34 28.7 19.1 V J75 – OAM Observatory, La Sagra MPS 277735
2009 02 15.03664 08 40 25.96 +17 40 43.7 19.9 V J75 – OAM Observatory, La Sagra MPS 277735
2009 02 15.05818 08 40 24.96 +17 40 50.5 20.4 V J75 – OAM Observatory, La Sagra MPS 277735
2009 02 15.07971 08 40 23.91 +17 40 57.3 20.1 V J75 – OAM Observatory, La Sagra MPS 277735
2009 03 01.11332 08 31 22.63 +18 50 36.6   691 – Steward Observatory, Kitt Peak-Spacewatch MPS 281373
2009 03 01.12933 08 31 22.14 +18 50 40.6   691 – Steward Observatory, Kitt Peak-Spacewatch MPS 281373
2009 03 01.14534 08 31 21.73 +18 50 45.4   691 – Steward Observatory, Kitt Peak-Spacewatch MPS 281373
2009 03 03.11009 08 30 28.26 +18 58 41.6 20.8 V 691 – Steward Observatory, Kitt Peak-Spacewatch MPS 281373
2009 03 03.12666 08 30 27.80 +18 58 44.9 21.0 V 691 – Steward Observatory, Kitt Peak-Spacewatch MPS 281373
2009 03 03.13978 08 30 27.43 +18 58 48.2 20.6 V 691 – Steward Observatory, Kitt Peak-Spacewatch MPS 281373
2009 04 30.13839 08 48 18.93 +19 30 39.2 21.9 V G96 – Mt. Lemmon Survey MPS 285731
2009 04 30.14927 08 48 19.58 +19 30 37.9 21.2 V G96 – Mt. Lemmon Survey MPS 285731
2009 04 30.16017 08 48 20.08 +19 30 36.8 21.0 V G96 – Mt. Lemmon Survey MPS 285731
2009 04 30.17109 08 48 20.70 +19 30 34.4 22.1 V G96 – Mt. Lemmon Survey MPS 285731
2010 04 10.33373 15 07 11.58 -07 20 22.6 20.7 V 691 – Steward Observatory, Kitt Peak-Spacewatch MPS 323346
2010 04 10.35135 15 07 10.91 -07 20 17.2 20.8 V 691 – Steward Observatory, Kitt Peak-Spacewatch MPS 323346
2010 04 10.36898 15 07 10.23 -07 20 13.1 20.7 V 691 – Steward Observatory, Kitt Peak-Spacewatch MPS 323346
2010 04 10.38642 15 07 09.55 -07 20 07.5 20.8 V G96 – Mt. Lemmon Survey MPS 323346
2010 04 10.39352 15 07 09.30 -07 20 05.3 20.8 V G96 – Mt. Lemmon Survey MPS 323346
2010 04 10.40076 15 07 09.04 -07 20 03.0 21.1 V G96 – Mt. Lemmon Survey MPS 323346
2010 04 10.40793 15 07 08.72 -07 20 01.3 20.7 V G96 – Mt. Lemmon Survey MPS 323346
2010 04 14.33311 15 04 36.95 -07 00 40.1 20.9 V 691 – Steward Observatory, Kitt Peak-Spacewatch MPS 323346
2010 04 14.35075 15 04 36.15 -07 00 36.3 20.9 V 691 – Steward Observatory, Kitt Peak-Spacewatch MPS 323346
2010 04 14.36839 15 04 35.39 -07 00 30.8 21.1 V 691 – Steward Observatory, Kitt Peak-Spacewatch MPS 323346
2010 05 06.461852 14 46 56.677 -05 18 21.73 20.21 i F51 – Pan-STARRS 1, Haleakala MPS 338835
2010 05 06.473760 14 46 56.048 -05 18 18.93 20.21 i F51 – Pan-STARRS 1, Haleakala MPS 338835
2010 05 12.435598 14 41 55.150 -04 56 40.41 21.20 g F51 – Pan-STARRS 1, Haleakala MPS 338835
2010 05 12.447244 14 41 54.548 -04 56 38.08 21.00 g F51 – Pan-STARRS 1, Haleakala MPS 338835
2010 05 17.29462 14 38 00.09 -04 42 03.8 20.3 V G96 – Mt. Lemmon Survey MPS 328516
2010 05 17.29992 14 37 59.77 -04 42 03.0 20.3 V G96 – Mt. Lemmon Survey MPS 328516
2010 05 17.30527 14 37 59.52 -04 42 02.3 20.4 V G96 – Mt. Lemmon Survey MPS 328516
2010 05 17.31065 14 37 59.26 -04 42 01.3 20.4 V G96 – Mt. Lemmon Survey MPS 328516
2011 05 28.41713 21 28 25.03 -12 05 44.1 21.3 V G96 – Mt. Lemmon Survey MPS 384580
